Tracking 33200 objects as of 17-Feb-2026
HD Live streaming from Space Station
objects crossing your sky now

ONEWEB-0568

Track ONEWEB-0568 now!
10-day predictions
ONEWEB-0568 is classified as:


NORAD ID: 56062
Int'l Code: 2023-043S
Perigee: 1,203.5 km
Apogee: 1,206.3 km
Inclination: 87.9 °
Period: 109.4 minutes
Semi major axis: 7575 km
RCS: Unknown
Launch date: March 26, 2023
Source: United Kingdom (UK)
Launch site: SRIHARIKOTA (SRI)
Your satellite tracking list
Your tracking list is empty




NASA's NSSDC Master Catalog

Two Line Element Set (TLE):
1 56062U 23043S   26048.54371065  .00000054  00000-0  10824-3 0  9999
2 56062  87.8999 252.5816 0001819  85.5965 274.5374 13.16595464143236
Source of the keplerian elements: AFSPC